Weather History for Fort Lewis, WA

Change the Weather History Date:

Friday, February 8, 2013

  Actual Average Record
Temperature  
Mean Temperature 36 °F -  
Max Temperature 44 °F 47 °F 52 °F (2007)
Min Temperature 28 °F 31 °F 26 °F (2005)
Degree Days  
Heating Degree Days 29    
Moisture  
Dew Point 32 °F    
Average Humidity 89    
Maximum Humidity 100    
Minimum Humidity 70    
Precipitation  
Precipitation 0.00 in - - ()
Sea Level Pressure  
Sea Level Pressure 30.27 in    
Wind  
Wind Speed 3 mph (East)    
Max Wind Speed 8 mph    
Max Gust Speed -    
Visibility 10 miles    
Events      
Averages and records for this station are not official NWS values.
T = Trace of Precipitation, MM = Missing Value Source: NWS Daily Summary

Daily Weather History Graph

Daily Weather History Graph

Search for Another Location

Airport:

Trip Planner

Search our weather history database for the weather conditions in past years. The results will help you decide how hot, cold, wet, or windy it might be!

Date:

Astronomy

Feb. 08, 2013 Rise Set
Actual Time 7:25 AM PST 5:24 PM PST
Civil Twilight 6:53 AM PST 5:56 PM PST
Nautical Twilight 6:17 AM PST 6:32 PM PST
Astronomical Twilight 5:41 AM PST 7:07 PM PST
Moon 6:01 AM PST (2/8) 4:02 PM PST (2/8)
Length of Visible Light 11h 02m
Length of Day
9h 59m
Waning Crescent, 3% of the Moon is Illuminated
Feb 8
Waning Crescent
Feb 9
New
Feb 17
First Quarter
Feb 25
Full
Mar 4
Last Quarter

Hourly Weather History & Observations

Time (PST) Temp. Windchill Dew Point Humidity Pressure Visibility Wind Dir Wind Speed Gust Speed Precip Events Conditions
12:18 AM 28.4 °F 24.6 °F 26.6 °F 93% 30.19 in 10.0 mi ESE 3.5 mph - N/A   Mostly Cloudy
12:58 AM 30.4 °F - 29.8 °F 98% 30.21 in 10.0 mi East 1.2 mph - N/A   Overcast
1:03 AM 30.2 °F - 30.2 °F 100% 30.19 in 10.0 mi ESE 2.3 mph - N/A   Mostly Cloudy
1:58 AM 29.1 °F 25.4 °F 28.4 °F 97% 30.22 in 10.0 mi ESE 3.5 mph - N/A   Clear
2:33 AM 30.2 °F - 30.2 °F 100% 30.22 in 10.0 mi Calm Calm - N/A   Mostly Cloudy
2:48 AM 30.2 °F - 28.4 °F 93% 30.21 in 10.0 mi ESE 2.3 mph - N/A   Scattered Clouds
2:58 AM 28.8 °F - 28.0 °F 97% 30.23 in 10.0 mi ESE 2.3 mph - N/A   Partly Cloudy
3:33 AM 28.4 °F - 26.6 °F 93% 30.22 in 10.0 mi Calm Calm - N/A   Mostly Cloudy
3:58 AM 28.6 °F 23.5 °F 27.9 °F 97% 30.24 in 10.0 mi ESE 4.6 mph - N/A   Overcast
4:13 AM 28.4 °F - 28.4 °F 100% 30.22 in 10.0 mi ESE 2.3 mph - N/A   Scattered Clouds
4:18 AM 28.4 °F - 28.4 °F 100% 30.22 in 10.0 mi ESE 2.3 mph - N/A   Mostly Cloudy
4:58 AM 28.2 °F - 27.3 °F 96% 30.26 in 10.0 mi ESE 2.3 mph - N/A   Mostly Cloudy
5:58 AM 31.5 °F - 30.7 °F 97% 30.27 in 10.0 mi ESE 2.3 mph - N/A   Overcast
6:08 AM 32.0 °F 28.7 °F 30.2 °F 93% 30.25 in 10.0 mi ESE 3.5 mph - N/A   Overcast
6:58 AM 30.2 °F 22.6 °F 29.5 °F 97% 30.27 in 10.0 mi ESE 8.1 mph - N/A   Overcast
7:08 AM 30.2 °F 24.3 °F 28.4 °F 93% 30.26 in 10.0 mi ESE 5.8 mph - N/A   Scattered Clouds
7:13 AM 30.2 °F 24.3 °F 28.4 °F 93% 30.26 in 10.0 mi ESE 5.8 mph - N/A   Mostly Cloudy
7:23 AM 30.2 °F 26.7 °F 30.2 °F 100% 30.26 in 10.0 mi ESE 3.5 mph - N/A   Mostly Cloudy
7:33 AM 32.0 °F 27.5 °F 30.2 °F 93% 30.26 in 10.0 mi ESE 4.6 mph - N/A   Overcast
7:58 AM 31.3 °F - 30.9 °F 99% 30.29 in 10.0 mi ESE 2.3 mph - N/A   Overcast
8:03 AM 32.0 °F - 32.0 °F 100% 30.27 in 10.0 mi ESE 2.3 mph - N/A   Overcast
8:58 AM 32.9 °F - 32.4 °F 98% 30.30 in 10.0 mi ESE 2.3 mph - N/A   Overcast
9:23 AM 33.8 °F - 32.0 °F 93% 30.28 in 10.0 mi Calm Calm - N/A   Mostly Cloudy
9:58 AM 37.2 °F - 35.4 °F 93% 30.31 in 10.0 mi ESE 2.3 mph - N/A   Overcast
10:18 AM 37.4 °F - 35.6 °F 93% 30.30 in 10.0 mi ESE 2.3 mph - N/A   Scattered Clouds
10:58 AM 40.5 °F - 37.8 °F 90% 30.32 in 10.0 mi North 1.2 mph - N/A   Partly Cloudy
11:08 AM 42.8 °F - 37.4 °F 81% 30.30 in 10.0 mi NNE 2.3 mph - N/A   Mostly Cloudy
11:13 AM 42.8 °F 41.1 °F 37.4 °F 81% 30.30 in 10.0 mi NE 3.5 mph - N/A   Mostly Cloudy
11:43 AM 44.6 °F 43.1 °F 35.6 °F 71% 30.29 in 10.0 mi NE 3.5 mph - N/A   Mostly Cloudy
11:58 AM 44.2 °F 41.0 °F 35.4 °F 71% 30.31 in 10.0 mi ENE 5.8 mph - N/A   Mostly Cloudy
12:18 PM 42.8 °F - 33.8 °F 70% 30.28 in 10.0 mi ENE 2.3 mph - N/A   Mostly Cloudy
12:58 PM 42.8 °F - 36.9 °F 80% 30.29 in 10.0 mi NNE 1.2 mph - N/A   Mostly Cloudy
1:03 PM 42.8 °F - 37.4 °F 81% 30.27 in 10.0 mi NNE 1.2 mph - N/A   Mostly Cloudy
1:58 PM 43.9 °F 40.5 °F 34.9 °F 71% 30.29 in 10.0 mi North 5.8 mph - N/A   Overcast
2:58 PM 44.1 °F 41.5 °F 36.0 °F 73% 30.29 in 10.0 mi North 4.6 mph - N/A   Overcast
3:58 PM 44.1 °F - 35.1 °F 71% 30.29 in 10.0 mi Calm Calm - N/A   Overcast
4:58 PM 43.2 °F - 35.1 °F 73% 30.29 in 10.0 mi NE 2.3 mph - N/A   Overcast
5:58 PM 41.9 °F - 35.6 °F 78% 30.29 in 10.0 mi Calm Calm - N/A   Overcast
6:58 PM 41.5 °F - 36.0 °F 81% 30.29 in 10.0 mi NE 1.2 mph - N/A   Overcast
7:58 PM 41.0 °F - 36.0 °F 82% 30.30 in 10.0 mi NE 1.2 mph - N/A   Overcast
8:58 PM 40.8 °F - 35.2 °F 80% 30.30 in 10.0 mi Calm Calm - N/A   Overcast
9:58 PM 39.2 °F - 35.8 °F 88% 30.29 in 10.0 mi Calm Calm - N/A   Overcast
10:58 PM 38.8 °F - 36.1 °F 90% 30.29 in 10.0 mi NE 2.3 mph - N/A   Overcast
11:58 PM 37.4 °F - 36.1 °F 95% 30.29 in 10.0 mi East 2.3 mph - N/A   Overcast